User: anonymous   Login
Location: Salamanca
(40.9670°N, 5.6500°W)
Time: 07:17:48
(UTC+02:00)
Language:

Cosmos 1633 Rocket - Orbit

View from above orbital plane
View from above orbital plane
View from above satellite
View from above satellite

Ground track
Ground track

The orbit data is extracted from the following two-line orbital elements,

1 15593U 85020B   18109.71257667  .00000082  00000-0  69260-5 0  9996
2 15593  82.5377 335.8169 0013161 105.5035 317.9743 14.84317753789846
Epoch (UTC): 19 April 2018 17:06:06
Eccentricity: 0.0013161
inclination: 82.5377°
perigee height: 606 km
apogee height: 625 km
right ascension of ascending node: 335.8169°
argument of perigee: 105.5035°
revolutions per day: 14.84317753
mean anomaly at epoch: 317.9743°
orbit number at epoch: 78984

The dashed part of the orbit path shows where the satellite is in the earth's shadow,  

DLR